Regional Weather Roundup
Issued by NWS

Home | Current Version | Previous Version | Text Only | Print | Product List | Glossary Off
Versions: 1 2 3 4 5 6 7 8 9 10 11 12 13 14 15 16 17 18 19 20 21 22 23 24 25 26 27 28 29 30 31 32 33 34 35 36 37 38 39 40 41 42 43 44 45 46 47 48 49 50

000
ASUS43 KOAX 301602
RWRNE

WEATHER ROUNDUP FOR NEBRASKA
NATIONAL WEATHER SERVICE OMAHA NE
1100 AM CDT SAT APR 30 2016

NOTES: SATELLITE DATA IS BEING USED TO AUGMENT CLOUD COVER ABOVE
       12000 FEET.
       "FAIR" INDICATES FEW OR NO CLOUDS BELOW 12,000 FEET WITH NO
       SIGNIFICANT WEATHER AND/OR OBSTRUCTIONS TO VISIBILITY.

  * THESE STATIONS DO NOT REPORT WEATHER SUCH AS RAIN...SNOW OR FOG.

NEZ001>004-019>022-054>056-301700-
NEBRASKA PANHANDLE

CITY           SKY/WX    TMP DP  RH WIND       PRES   REMARKS
SCOTTSBLUFF    LGT SNOW  35  32  88 N18       29.95R FOG     WCI  24
CHADRON        LGT RAIN  40  37  89 NE21G28   30.00S FOG     WCI  30
KIMBALL        LGT SNOW  33  32  96 N16       29.92R WCI  23
SIDNEY         LGT SNOW  34  31  88 N18       29.89S VSB 3/4 WCI  23
$$

NEZ057>060-069>072-079>082-301700-
SOUTHWEST NEBRASKA

CITY           SKY/WX    TMP DP  RH WIND       PRES   REMARKS
NORTH PLATTE   MIX PCPN  35  33  92 N15G23    29.81S WCI  25
IMPERIAL       LGT SNOW  34  32  92 N17       29.83R FOG     WCI  23
LEXINGTON      LGT RAIN  39  37  90 N16       29.78S WCI  31
MCCOOK         CLOUDY    39  36  89 N17       29.79F FOG     WCI  30
$$

NEZ005>010-023>029-035>040-094-301700-
NORTH CENTRAL NEBRASKA

CITY           SKY/WX    TMP DP  RH WIND       PRES   REMARKS
VALENTINE      LGT RAIN  39  35  86 NE25G31   29.92S WCI  28
AINSWORTH      SNOW      33  33  99 N14       29.88F VSB 1/4 WCI  23
BROKEN BOW     LGT RAIN  37  35  92 N20G25    29.78F WCI  27
O`NEILL        LGT RAIN  40  38  92 NE30      29.82F WCI  29
ORD            LGT RAIN  42  40  92 NE15      29.78S FOG
$$

NEZ041-046>049-061>064-073>077-083>087-301700-
SOUTH CENTRAL NEBRASKA

CITY           SKY/WX    TMP DP  RH WIND       PRES   REMARKS
GRAND ISLAND   LGT RAIN  44  42  93 NE16      29.74S FOG
AURORA         CLOUDY    44  44  99 NE15      29.72S FOG
HASTINGS       CLOUDY    45  43  93 NE14      29.72S FOG
KEARNEY *      CLOUDY    43  39  87 N14       29.74F
YORK           PTSUNNY   45  45 100 NE14      29.71S FOG
$$

NEZ011>018-030>034-042>045-301700-
NORTHEAST NEBRASKA

CITY           SKY/WX    TMP DP  RH WIND       PRES   REMARKS
NORFOLK        CLOUDY    43  40  89 NE16      29.76R
ALBION         RAIN      42  40  93 NE15G21   29.77S
BLAIR          LGT RAIN  46  45  95 NE13      29.71R
COLUMBUS *     CLOUDY    45  37  76 NE15G22   29.74S
FREMONT        LGT RAIN  45  45  99 NE7       29.73S
TEKAMAH        CLOUDY    46  43  89 NE8       29.75R
$$

NEZ050>053-065>068-078-088>093-301700-
SOUTHEAST NEBRASKA

CITY           SKY/WX    TMP DP  RH WIND       PRES   REMARKS
LINCOLN        CLOUDY    48  46  93 NE13      29.71R FOG
OMAHA EPPLEY   LGT RAIN  48  45  89 E9        29.72R FOG
BEATRICE       CLOUDY    49  48  97 N5        29.67S FOG
FALLS CITY     CLOUDY    54  52  93 SE7       29.65R
NEBRASKA CITY  DRIZZLE   50  50 100 E8        29.67S
$$

NEZ044-045-051>053-067-301700-
OMAHA AREA

CITY           SKY/WX    TMP DP  RH WIND       PRES   REMARKS
OMAHA EPPLEY   LGT RAIN  48  45  89 E9        29.72R FOG
BLAIR          LGT RAIN  46  45  95 NE13      29.71R
FREMONT        LGT RAIN  45  45  99 NE7       29.73S
WAHOO          DRIZZLE   47  45  95 NE12      29.71S
$$




USA.gov is the U.S. government's official web portal to all federal, state and local government web resources and services.